Change the Weather History Date:

Friday, April 19, 2013

  Actual Average Record
Temperature  
Mean Temperature 37 °F 52 °F  
Max Temperature 50 °F 64 °F 87 °F (1946)
Min Temperature 24 °F 40 °F 23 °F (1953)
Degree Days  
Heating Degree Days 28 13  
Month to date heating degree days 435 308  
Since 1 July heating degree days 5944 5715  
Cooling Degree Days 0 0  
Month to date cooling degree days 0 0  
Year to date cooling degree days 0 0  
Moisture  
Dew Point 25 °F    
Average Humidity 64    
Maximum Humidity 88    
Minimum Humidity 39    
Precipitation  
Precipitation 0.00 in 0.09 in 1.46 in (2011)
Month to date precipitation 1.58 1.37  
Year to date precipitation 5.05 4.06  
Snow  
Snow 0.00 in 0.00 in 6.00 in (1941)
Month to date snowfall 3.7 1.0  
Since 1 July snowfall 35.4 28.6  
Snow Depth T in    
Sea Level Pressure  
Sea Level Pressure 30.05 in    
Wind  
Wind Speed 12 mph (NW)    
Max Wind Speed 25 mph    
Max Gust Speed 32 mph    
Visibility 10 miles    
Events      
T = Trace of Precipitation, MM = Missing Value Source: NWS Daily Summary

Daily Weather History Graph

Daily Weather History Graph

Search for Another Location

Airport or City:

Trip Planner

Search our weather history database for the weather conditions in past years. The results will help you decide how hot, cold, wet, or windy it might be!

Date:

Astronomy

Apr. 19, 2013 Rise Set
Actual Time 6:48 AM CDT 8:17 PM CDT
Civil Twilight 6:20 AM CDT 8:46 PM CDT
Nautical Twilight 5:45 AM CDT 9:20 PM CDT
Astronomical Twilight 5:09 AM CDT 9:57 PM CDT
Moon 2:01 PM CDT (4/19) 3:06 AM CDT (4/19)
Length of Visible Light 14h 26m
Length of Day
13h 28m
First Quarter, 62% of the Moon is Illuminated
Apr 19
First Quarter
Apr 25
Full
May 2
Last Quarter
May 9
New
May 17
First Quarter

Hourly Weather History & Observations

Time (CDT) Temp. Windchill Dew Point Humidity Pressure Visibility Wind Dir Wind Speed Gust Speed Precip Events Conditions
12:53 AM 28.9 °F 18.6 °F 23.0 °F 78% 30.04 in 10.0 mi WNW 12.7 mph - N/A   Clear
1:53 AM 28.0 °F 17.5 °F 21.9 °F 78% 30.03 in 10.0 mi WNW 12.7 mph - N/A   Clear
2:53 AM 28.0 °F 18.1 °F 21.9 °F 78% 30.03 in 10.0 mi WNW 11.5 mph - N/A   Clear
3:53 AM 27.0 °F 16.1 °F 23.0 °F 85% 30.02 in 10.0 mi WNW 12.7 mph - N/A   Clear
4:53 AM 26.1 °F 15.6 °F 21.9 °F 84% 30.02 in 10.0 mi WNW 11.5 mph - N/A   Clear
5:53 AM 25.0 °F 15.5 °F 21.0 °F 85% 30.02 in 10.0 mi West 9.2 mph - N/A   Clear
6:53 AM 24.1 °F 14.4 °F 19.9 °F 84% 30.04 in 10.0 mi West 9.2 mph - N/A   Clear
7:53 AM 27.0 °F 18.0 °F 21.0 °F 78% 30.04 in 10.0 mi West 9.2 mph - N/A   Clear
8:53 AM 30.9 °F 22.2 °F 23.0 °F 72% 30.03 in 10.0 mi WNW 10.4 mph - N/A   Clear
9:53 AM 33.1 °F 24.4 °F 24.1 °F 70% 30.03 in 10.0 mi WNW 11.5 mph - N/A   Overcast
10:53 AM 37.0 °F 29.3 °F 25.0 °F 62% 30.03 in 10.0 mi West 11.5 mph - N/A   Scattered Clouds
11:53 AM 39.9 °F 32.1 °F 24.1 °F 53% 30.04 in 10.0 mi WNW 13.8 mph - N/A   Clear
12:53 PM 44.1 °F 37.7 °F 28.0 °F 53% 30.04 in 10.0 mi NW 12.7 mph - N/A   Clear
1:53 PM 46.0 °F 39.6 °F 28.9 °F 51% 30.03 in 10.0 mi NNW 15.0 mph 25.3 mph N/A   Mostly Cloudy
2:53 PM 48.2 °F - 30.2 °F 50% 29.99 in 10.0 mi NW 21.9 mph - N/A   Scattered Clouds
3:53 PM 48.0 °F - 26.1 °F 42% 30.03 in 10.0 mi NNW 18.4 mph 28.8 mph N/A   Clear
4:53 PM 48.0 °F - 25.0 °F 41% 30.04 in 10.0 mi NNW 20.7 mph - N/A   Mostly Cloudy
5:53 PM 46.0 °F 40.6 °F 26.1 °F 46% 30.05 in 10.0 mi NW 11.5 mph - N/A   Scattered Clouds
6:53 PM 46.9 °F - 26.1 °F 44% 30.06 in 10.0 mi North 15.0 mph - N/A   Clear
7:53 PM 43.0 °F 38.8 °F 27.0 °F 53% 30.07 in 10.0 mi North 6.9 mph - N/A   Clear
8:53 PM 36.0 °F 31.1 °F 26.1 °F 67% 30.09 in 10.0 mi NE 5.8 mph - N/A   Clear
9:53 PM 35.1 °F 29.3 °F 26.1 °F 70% 30.12 in 10.0 mi ENE 6.9 mph - N/A   Clear
10:53 PM 32.0 °F 26.4 °F 25.0 °F 75% 30.12 in 10.0 mi ENE 5.8 mph - N/A   Clear
11:53 PM 33.1 °F 26.9 °F 24.1 °F 70% 30.11 in 10.0 mi East 6.9 mph - N/A   Clear